STARLINK-2707, 48669

Orbit data source: Space-Track

STARLINK-2707, 48669 is a payload satellite owned by SpaceX/Seattle (US) in LEO that was launched on Wed, 26 May 2021 UTC via an FALCON 9 launch vehicle from the Air Force Eastern Test Range (AFETR). Payload-class satellites include a variety of spacecraft equipped with specific instruments for various scientific and technological missions. These include communications satellites like Starlink; space stations such as the ISS; scientific satellites like the Hubble; Earth observation satellites from companies like Planet Labs, Umbra, and HawkEye 360; GPS; miniature CubeSats for education and research; and military/defense satellites.

Loading next visibility...
Identifier
48669, 2021-044AH
Orbit
LEO
Country
Flag of USUS
Related business
Manufacturer
SpaceX/Seattle
Mission
Operational Commercial Communications
Bus & Motor
STARLINK, Unknown motor
Mass
260 kg wet, ~248 kg dry
Launch date (UTC)
2021-05-26 (5 years ago)
Launch vehicle
FALCON 9
Launch site
Air Force Eastern Test Range (AFETR)
Object type
Payload
Rocket body
Debris
Shape & HBR
Box + 1 Pan, 10.1 m
Radar Cross Section
13.562 m², Large (>1 m²)

Expand to show TLE details & history
Last TLE update: 2 days ago

TLE from 2 days ago
0 STARLINK-2707
1 48669U 21044AH  26171.46546117  .00001720  00000-0  67197-4 0  9999
2 48669  53.1602 345.9429 0000927  85.7154 274.3953 15.31690167279703
Epoch: 2026-06-20T11:10Z
TLE epoch observation values (Epoch: 2026-06-20T11:10:15.845Z)
Latitude
-0.00003°
Longitude
-90.30283°
Altitude
471.621 km
Speed
7.631 km/s
True Right ascension
23h 03m 46s
True Declination
0° 00' 00"
Sunlit
Object was in daylight at epoch
Visualization orbit readout
Latitude
Unknown
Longitude
Unknown
Altitude
Unknown
Speed
Unknown
Apparent Right ascension
Unknown
Apparent Declination
Unknown
Sunlit
N/A
Visualization observer readout
Local Sidereal Time
23:27:22
Azimuth
Unknown
Elevation
Unknown
Doppler factor
Unknown
Orbital elements
Apogee altitude
471.661 km
Perigee altitude
470.391 km
Semi-major axis
6,849.163 km
Eccentricity
0.00009
Inclination
53.1602°
RAAN
345.9429°
Arg. of periapsis
85.7154°
True anomaly
274.38471°
Mean anomaly
274.3953°
Eccentric anomaly
274.39°
Mean motion
3.82901 °/min
Orbital period
94.02 mins
BSTAR
0.000067197
Loading maneuver chart data...
Computing Atmospheric mass density...
Loading historical data...
Loading historical data...
Loading historical data...
Loading historical data...
Loading historical data...
Loading historical data...
Loading historical data...

Documentation

Showing up to 5 results
|